TimeCDT,TemperatureF,Dew PointF,Humidity,Sea Level PressureIn,VisibilityMPH,Wind Direction,Wind SpeedMPH,Gust SpeedMPH,PrecipitationIn,Events,Conditions,WindDirDegrees,DateUTC
12:15 AM,37.8,37.0,97,29.89,7.0,Calm,Calm,-,N/A,,Clear,0,2013-10-18 05:15:00
12:35 AM,37.6,36.7,97,29.89,10.0,Calm,Calm,-,N/A,,Clear,0,2013-10-18 05:35:00
12:55 AM,37.8,36.7,96,29.89,10.0,Calm,Calm,-,N/A,,Clear,0,2013-10-18 05:55:00
1:15 AM,36.1,34.9,95,29.89,10.0,Calm,Calm,-,N/A,,Clear,0,2013-10-18 06:15:00
1:35 AM,38.3,36.5,93,29.89,10.0,South,3.5,-,N/A,,Clear,170,2013-10-18 06:35:00
1:55 AM,38.5,36.1,91,29.89,10.0,South,4.6,-,N/A,,Clear,170,2013-10-18 06:55:00
2:15 AM,36.9,35.4,95,29.89,10.0,Calm,Calm,-,N/A,,Clear,0,2013-10-18 07:15:00
2:35 AM,38.3,36.3,93,29.89,10.0,South,3.5,-,N/A,,Clear,180,2013-10-18 07:35:00
2:55 AM,38.1,36.0,92,29.88,10.0,South,3.5,-,N/A,,Clear,190,2013-10-18 07:55:00
3:15 AM,39.2,36.7,91,29.88,10.0,SSW,5.8,-,N/A,,Clear,210,2013-10-18 08:15:00
3:35 AM,40.1,37.4,90,29.88,10.0,SSW,4.6,-,N/A,,Clear,210,2013-10-18 08:35:00
3:55 AM,41.2,38.3,89,29.88,10.0,SW,3.5,-,N/A,,Scattered Clouds,220,2013-10-18 08:55:00
4:15 AM,39.7,37.2,91,29.88,10.0,SW,3.5,-,N/A,,Clear,230,2013-10-18 09:15:00
4:35 AM,40.1,37.4,90,29.88,10.0,SW,5.8,-,N/A,,Clear,220,2013-10-18 09:35:00
4:55 AM,40.5,37.8,90,29.89,10.0,SW,6.9,-,N/A,,Clear,220,2013-10-18 09:55:00
5:15 AM,40.3,37.8,91,29.89,10.0,SW,5.8,-,N/A,,Clear,220,2013-10-18 10:15:00
5:35 AM,39.2,37.2,93,29.89,10.0,SW,5.8,-,N/A,,Clear,220,2013-10-18 10:35:00
5:55 AM,39.0,37.2,93,29.89,10.0,SW,5.8,-,N/A,,Clear,220,2013-10-18 10:55:00
6:15 AM,39.4,37.4,93,29.90,10.0,SW,6.9,-,N/A,,Clear,220,2013-10-18 11:15:00
6:35 AM,38.7,36.9,93,29.90,10.0,SW,6.9,-,N/A,,Clear,220,2013-10-18 11:35:00
6:55 AM,37.6,36.5,96,29.90,10.0,SW,5.8,-,N/A,,Clear,220,2013-10-18 11:55:00
7:15 AM,37.4,36.0,95,29.91,10.0,SW,3.5,-,N/A,,Clear,220,2013-10-18 12:15:00
7:35 AM,39.4,38.1,95,29.91,10.0,SW,4.6,-,N/A,,Clear,230,2013-10-18 12:35:00
7:55 AM,41.4,39.0,91,29.92,10.0,WSW,4.6,-,N/A,,Clear,250,2013-10-18 12:55:00
8:15 AM,43.0,39.9,89,29.93,10.0,West,8.1,-,N/A,,Clear,260,2013-10-18 13:15:00
8:35 AM,44.2,40.6,87,29.94,10.0,West,9.2,-,N/A,,Clear,260,2013-10-18 13:35:00
8:55 AM,44.8,41.2,87,29.94,10.0,West,11.5,16.1,N/A,,Clear,270,2013-10-18 13:55:00
9:15 AM,45.9,42.1,87,29.95,10.0,West,12.7,-,N/A,,Scattered Clouds,260,2013-10-18 14:15:00
9:35 AM,46.4,42.3,85,29.95,10.0,West,12.7,-,N/A,,Mostly Cloudy,270,2013-10-18 14:35:00
9:55 AM,45.1,42.1,89,29.97,10.0,West,11.5,17.3,N/A,,Overcast,270,2013-10-18 14:55:00
10:15 AM,42.8,41.7,96,29.98,2.5,West,8.1,-,N/A,,Overcast,260,2013-10-18 15:15:00
10:24 AM,42.8,42.8,100,29.99,3.0,West,9.2,-,N/A,,Overcast,260,2013-10-18 15:24:00
10:35 AM,43.2,41.9,95,29.99,3.0,West,10.4,16.1,N/A,,Overcast,270,2013-10-18 15:35:00
10:43 AM,42.8,42.8,100,29.99,3.0,West,11.5,-,N/A,,Overcast,280,2013-10-18 15:43:00
10:55 AM,43.7,42.1,94,29.99,5.0,West,9.2,-,N/A,,Overcast,270,2013-10-18 15:55:00
11:15 AM,44.2,42.3,93,29.99,4.0,West,11.5,19.6,N/A,,Overcast,260,2013-10-18 16:15:00
11:35 AM,45.0,42.6,91,29.99,5.0,WSW,11.5,-,N/A,,Overcast,250,2013-10-18 16:35:00
11:55 AM,46.0,42.4,87,29.99,7.0,West,12.7,16.1,N/A,,Overcast,270,2013-10-18 16:55:00
12:04 PM,46.4,42.8,87,29.99,10.0,West,11.5,18.4,N/A,,Overcast,260,2013-10-18 17:04:00
12:15 PM,46.4,42.3,85,29.99,10.0,West,9.2,-,N/A,,Overcast,260,2013-10-18 17:15:00
12:24 PM,46.4,42.8,87,29.98,10.0,West,12.7,16.1,N/A,,Overcast,270,2013-10-18 17:24:00
12:35 PM,46.4,41.9,84,29.99,10.0,West,9.2,-,N/A,,Overcast,270,2013-10-18 17:35:00
12:55 PM,47.3,42.1,82,29.97,10.0,WSW,10.4,-,N/A,,Overcast,250,2013-10-18 17:55:00
1:15 PM,47.8,41.5,79,29.97,10.0,WSW,11.5,17.3,N/A,,Overcast,250,2013-10-18 18:15:00
1:24 PM,48.2,41.0,76,29.96,10.0,West,12.7,18.4,N/A,,Overcast,270,2013-10-18 18:24:00
1:35 PM,47.7,41.0,78,29.96,10.0,West,11.5,18.4,N/A,,Overcast,260,2013-10-18 18:35:00
1:55 PM,47.7,40.1,75,29.97,10.0,WSW,12.7,18.4,N/A,,Overcast,250,2013-10-18 18:55:00
2:15 PM,48.2,40.3,74,29.96,10.0,West,12.7,16.1,N/A,,Overcast,270,2013-10-18 19:15:00
2:35 PM,48.6,39.7,72,29.96,10.0,West,10.4,16.1,N/A,,Overcast,260,2013-10-18 19:35:00
2:55 PM,49.3,40.1,71,29.96,10.0,WSW,10.4,16.1,N/A,,Overcast,250,2013-10-18 19:55:00
3:15 PM,49.3,39.7,70,29.96,10.0,WSW,9.2,-,N/A,,Overcast,250,2013-10-18 20:15:00
3:35 PM,49.8,39.7,68,29.96,10.0,WSW,11.5,17.3,N/A,,Overcast,250,2013-10-18 20:35:00
3:55 PM,50.9,39.6,65,29.96,10.0,West,10.4,-,N/A,,Overcast,260,2013-10-18 20:55:00
4:15 PM,50.0,38.5,65,29.97,10.0,West,10.4,-,N/A,,Overcast,270,2013-10-18 21:15:00
4:35 PM,50.0,38.1,64,29.97,10.0,West,11.5,18.4,N/A,,Overcast,270,2013-10-18 21:35:00
4:55 PM,49.6,37.8,64,29.97,10.0,West,10.4,-,N/A,,Overcast,280,2013-10-18 21:55:00
5:15 PM,49.1,37.8,65,29.97,10.0,West,10.4,17.3,N/A,,Overcast,280,2013-10-18 22:15:00
5:35 PM,48.7,37.0,64,29.98,10.0,West,9.2,-,N/A,,Overcast,270,2013-10-18 22:35:00
5:55 PM,48.2,37.0,65,29.98,10.0,West,8.1,-,N/A,,Overcast,270,2013-10-18 22:55:00
6:15 PM,47.3,36.5,66,29.99,10.0,West,4.6,-,N/A,,Scattered Clouds,270,2013-10-18 23:15:00
6:35 PM,46.4,36.1,67,29.99,10.0,WSW,3.5,-,N/A,,Clear,240,2013-10-18 23:35:00
6:55 PM,45.5,37.0,72,29.99,10.0,SW,4.6,-,N/A,,Scattered Clouds,230,2013-10-18 23:55:00
7:15 PM,45.3,37.0,73,29.99,10.0,Calm,Calm,-,N/A,,Clear,0,2013-10-19 00:15:00
7:35 PM,44.6,37.4,76,30.00,10.0,WSW,4.6,-,N/A,,Scattered Clouds,250,2013-10-19 00:35:00
7:55 PM,44.8,37.4,75,29.99,10.0,WSW,3.5,-,N/A,,Scattered Clouds,240,2013-10-19 00:55:00
8:15 PM,45.0,37.4,75,29.99,10.0,West,3.5,-,N/A,,Mostly Cloudy,270,2013-10-19 01:15:00
8:35 PM,45.3,37.6,74,29.99,10.0,WSW,3.5,-,N/A,,Overcast,240,2013-10-19 01:35:00
8:55 PM,43.7,38.5,82,29.99,10.0,WSW,3.5,-,N/A,,Scattered Clouds,240,2013-10-19 01:55:00
9:15 PM,44.6,38.1,78,29.98,10.0,Calm,Calm,-,N/A,,Scattered Clouds,0,2013-10-19 02:15:00
9:35 PM,44.6,38.5,79,29.99,10.0,Calm,Calm,-,N/A,,Mostly Cloudy,0,2013-10-19 02:35:00
9:55 PM,44.6,38.8,80,29.98,10.0,West,3.5,-,N/A,,Overcast,270,2013-10-19 02:55:00
10:15 PM,45.0,38.8,79,29.97,10.0,WNW,5.8,-,N/A,,Overcast,290,2013-10-19 03:15:00
10:35 PM,45.5,38.7,77,29.98,10.0,West,4.6,-,N/A,,Overcast,270,2013-10-19 03:35:00
10:55 PM,45.5,38.8,78,29.99,10.0,WSW,3.5,-,N/A,,Overcast,250,2013-10-19 03:55:00
11:15 PM,45.1,39.2,80,29.99,10.0,West,3.5,-,N/A,,Overcast,260,2013-10-19 04:15:00
11:35 PM,45.3,39.2,79,29.98,10.0,WSW,4.6,-,N/A,,Light Drizzle,250,2013-10-19 04:35:00
11:55 PM,45.0,39.6,81,29.97,10.0,WSW,5.8,-,N/A,,Light Drizzle,250,2013-10-19 04:55:00